Location: Unspecified
(0.0000°N, 0.0000°E)
Time: 00:32:10
(UTC+00:00)

A-11 Canister half - Pass Details

Date: 16 February 2023
Orbit: 1526 x 1682 km, 47.3° (Epoch: 29 March)

Event Time Altitude Azimuth Distance (km) Brightness Sun altitude
Rises 10:40:00 0° 326° (NW) 4,723 11.3 63.6°
Reaches altitude 10° 10:43:03 10° 329° (NNW) 3,759 10.9 64.3°
Maximum altitude 10:52:34 69° 51° (NE) 1,701 10.7 66.3°
Drops below altitude 10° 11:02:25 10° 133° (SE) 3,891 11.6 68.4°
Sets 11:05:37 0° 135° (SE) 4,896 11.9 69.0°
